Find Starlink 4720

NORAD ID: 53800 Int'l Des: 2022-111 Owner: SPXS Country: US Constellation: starlink operational
LEOCIRCULAR

Current View

Loading 3D Globe...

About Starlink 4720

Description loading...

Upcoming Passes

Passes for default location (London). Set your location on the main map for personalized predictions.

Altitude History

Loading altitude history...

Two-Line Element Set

1 53800U 22111AD 26145.94730760 .00037525 00000-0 49446-3 0 9999
2 53800 53.2079 227.4885 0003463 34.2493 325.8743 15.58082921206181
Epoch: May 25, 2026 • Age: 14 hours

Current Status

Altitude 394.3 km
Velocity 7.68 km/s
Sub-Earth Point -9.98°S, 145.03°E
Launch Date Sep 11, 2022
Age 3.7 years
Type internet

Technical Details

Classification Payload
Mass 305.00 kg
Dry Mass 290.00 kg
Total Mass 305.00 kg
Length 0.20 m
Diameter 2.80 m
Span 9.00 m
Shape Box + pan
Manufacturer SPXS
Bus Type Starlink
Phase Status In Orbit
Owner/State SPXS/US

Most Searched